IBE2KC LEMD-LEPA

Flight info

Callsign IBE2KC
Flight time 0h 47m
Altitude 30000
Route NANDO T257 FENXE/N0405F320 T257 LASPO/N0366F260 M871 GODOX
Aircraft A20N/M-SDE2E3FGHIRWXY/LB1

Departure

Time 2026-05-07 16:44
Airport Adolfo Suárez Madrid–Barajas Airport (LEMD)

Arrival

Time 2026-05-07 17:31
Airport Palma de Mallorca Airport (LEPA)
Time Latitude Longitude Altitude Speed Heading
2026-05-07 16:20 40.49398 -3.58969 2032 ft 0 kts 269°
2026-05-07 16:29 40.49398 -3.58958 2032 ft 5 kts 272°
2026-05-07 16:30 40.49394 -3.58915 2028 ft 4 kts 282°
2026-05-07 16:30 40.49387 -3.58874 2031 ft 4 kts 282°
2026-05-07 16:30 40.49382 -3.58834 2033 ft 3 kts 255°
2026-05-07 16:30 40.49400 -3.58813 2034 ft 2 kts 177°
2026-05-07 16:31 40.49404 -3.58813 2032 ft 0 kts 183°
2026-05-07 16:32 40.49401 -3.58813 2032 ft 2 kts 183°
2026-05-07 16:32 40.49373 -3.58815 2026 ft 6 kts 183°
2026-05-07 16:32 40.49321 -3.58819 2022 ft 9 kts 183°
2026-05-07 16:33 40.49248 -3.58824 2025 ft 5 kts 183°
2026-05-07 16:33 40.49251 -3.58824 2026 ft 3 kts 191°
2026-05-07 16:33 40.49289 -3.58812 2022 ft 0 kts 187°
2026-05-07 16:34 40.49283 -3.58812 2027 ft 5 kts 187°
2026-05-07 16:35 40.49185 -3.58817 2031 ft 18 kts 177°
2026-05-07 16:35 40.49051 -3.58813 2022 ft 21 kts 179°
2026-05-07 16:35 40.48953 -3.58810 2027 ft 22 kts 179°
2026-05-07 16:35 40.48756 -3.58759 2022 ft 18 kts 107°
2026-05-07 16:36 40.48759 -3.58596 2022 ft 28 kts 90°
2026-05-07 16:36 40.48759 -3.58319 2012 ft 26 kts 90°
2026-05-07 16:36 40.48760 -3.58234 2009 ft 0 kts 89°
2026-05-07 16:36 40.48760 -3.58232 2009 ft 2 kts 89°
2026-05-07 16:37 40.48760 -3.58215 2008 ft 5 kts 89°
2026-05-07 16:37 40.48761 -3.58133 2006 ft 13 kts 89°
2026-05-07 16:37 40.48761 -3.57981 2000 ft 21 kts 89°
2026-05-07 16:37 40.48762 -3.57768 1993 ft 26 kts 90°
2026-05-07 16:38 40.48763 -3.57562 1990 ft 22 kts 91°
2026-05-07 16:38 40.48765 -3.57345 1986 ft 25 kts 90°
2026-05-07 16:38 40.48765 -3.57103 1981 ft 28 kts 90°
2026-05-07 16:38 40.48767 -3.56838 1980 ft 30 kts 89°
2026-05-07 16:39 40.48769 -3.56553 1974 ft 32 kts 89°
2026-05-07 16:39 40.48768 -3.56245 1961 ft 35 kts 90°
2026-05-07 16:39 40.48813 -3.56132 1958 ft 7 kts 349°
2026-05-07 16:39 40.48871 -3.56139 1959 ft 10 kts
2026-05-07 16:40 40.48966 -3.56139 1959 ft 16 kts 359°
2026-05-07 16:40 40.49094 -3.56140 1959 ft 20 kts 359°
2026-05-07 16:40 40.49239 -3.56140 1959 ft 22 kts
2026-05-07 16:40 40.49298 -3.56009 1961 ft 16 kts 89°
2026-05-07 16:41 40.49313 -3.55952 1959 ft 9 kts 53°
2026-05-07 16:41 40.49374 -3.55941 1960 ft 9 kts 338°
2026-05-07 16:41 40.49441 -3.55962 1960 ft 12 kts 38°
2026-05-07 16:41 40.49450 -3.55944 1963 ft 1 kts 59°
2026-05-07 16:42 40.49458 -3.55930 1961 ft 3 kts 52°
2026-05-07 16:42 40.49462 -3.55924 1961 ft 0 kts 52°
2026-05-07 16:42 40.49491 -3.55876 1962 ft 12 kts 51°
2026-05-07 16:42 40.49484 -3.55786 1963 ft 11 kts 147°
2026-05-07 16:43 40.49412 -3.55715 1962 ft 15 kts 144°
2026-05-07 16:43 40.49332 -3.55634 1961 ft 19 kts 142°
2026-05-07 16:43 40.49105 -3.55402 1954 ft 74 kts 142°
2026-05-07 16:43 40.48530 -3.54818 1941 ft 132 kts 142°
2026-05-07 16:44 40.47681 -3.53954 2006 ft 170 kts 141°
2026-05-07 16:44 40.46749 -3.53013 2595 ft 167 kts 141°
2026-05-07 16:44 40.45809 -3.52077 3158 ft 175 kts 143°
2026-05-07 16:44 40.44822 -3.51096 3733 ft 178 kts 137°
2026-05-07 16:45 40.44264 -3.49726 4443 ft 171 kts 95°
2026-05-07 16:45 40.44224 -3.48199 5075 ft 167 kts 92°
2026-05-07 16:45 40.44192 -3.46645 5596 ft 175 kts 92°
2026-05-07 16:45 40.44164 -3.44981 6083 ft 190 kts 91°
2026-05-07 16:46 40.44154 -3.43166 6595 ft 208 kts 91°
2026-05-07 16:46 40.44159 -3.41185 7134 ft 226 kts 90°
2026-05-07 16:46 40.44170 -3.39076 7696 ft 244 kts 90°
2026-05-07 16:46 40.44189 -3.36736 8255 ft 267 kts 90°
2026-05-07 16:47 40.44215 -3.34184 8817 ft 290 kts 90°
2026-05-07 16:47 40.44250 -3.31436 9331 ft 314 kts 90°
2026-05-07 16:47 40.44284 -3.28475 9965 ft 329 kts 90°
2026-05-07 16:47 40.44271 -3.25479 10803 ft 336 kts 91°
2026-05-07 16:48 40.44206 -3.22376 11591 ft 345 kts 93°
2026-05-07 16:48 40.44070 -3.19176 12283 ft 356 kts 94°
2026-05-07 16:48 40.43955 -3.15986 12886 ft 339 kts 94°
2026-05-07 16:48 40.43830 -3.12991 13050 ft 318 kts 95°
2026-05-07 16:49 40.43661 -3.09989 13087 ft 344 kts 96°
2026-05-07 16:49 40.43510 -3.06796 12975 ft 351 kts 92°
2026-05-07 16:49 40.43429 -3.03604 13139 ft 348 kts 97°
2026-05-07 16:49 40.42893 -3.00484 13875 ft 355 kts 111°
2026-05-07 16:50 40.41822 -2.97538 14592 ft 360 kts 122°
2026-05-07 16:50 40.40419 -2.94780 15321 ft 366 kts 126°
2026-05-07 16:50 40.38963 -2.92051 15971 ft 374 kts 127°
2026-05-07 16:50 40.37417 -2.89248 16579 ft 383 kts 127°
2026-05-07 16:51 40.35849 -2.86396 17338 ft 388 kts 127°
2026-05-07 16:51 40.34273 -2.83490 18035 ft 394 kts 127°
2026-05-07 16:51 40.32684 -2.80526 18677 ft 399 kts 127°
2026-05-07 16:51 40.31088 -2.77531 19334 ft 403 kts 127°
2026-05-07 16:52 40.29492 -2.74526 19961 ft 408 kts 127°
2026-05-07 16:52 40.27862 -2.71458 20550 ft 413 kts 127°
2026-05-07 16:52 40.26209 -2.68350 21194 ft 417 kts 127°
2026-05-07 16:52 40.24536 -2.65209 21728 ft 422 kts 127°
2026-05-07 16:53 40.22854 -2.62051 21907 ft 424 kts 127°
2026-05-07 16:53 40.21154 -2.58866 22103 ft 428 kts 127°
2026-05-07 16:53 40.19565 -2.55551 22775 ft 433 kts 118°
2026-05-07 16:53 40.18559 -2.51810 23384 ft 440 kts 106°
2026-05-07 16:54 40.17822 -2.47943 23885 ft 445 kts 105°
2026-05-07 16:54 40.17090 -2.43936 24406 ft 449 kts 105°
2026-05-07 16:54 40.16371 -2.40006 24915 ft 452 kts 105°
2026-05-07 16:54 40.15628 -2.35995 25403 ft 455 kts 106°
2026-05-07 16:55 40.14872 -2.31959 25877 ft 459 kts 106°
2026-05-07 16:55 40.14119 -2.27972 26318 ft 462 kts 106°
2026-05-07 16:55 40.13341 -2.23878 26785 ft 465 kts 107°
2026-05-07 16:55 40.12555 -2.19752 27241 ft 469 kts 107°
2026-05-07 16:56 40.11762 -2.15604 27657 ft 472 kts 107°
2026-05-07 16:56 40.10961 -2.11427 28061 ft 476 kts 107°
2026-05-07 16:56 40.09348 -2.03033 28847 ft 482 kts 107°
2026-05-07 16:57 40.08527 -1.98773 29225 ft 485 kts 107°
2026-05-07 16:57 40.07699 -1.94487 29529 ft 489 kts 108°
2026-05-07 16:57 40.06863 -1.90171 29874 ft 491 kts 108°
2026-05-07 16:57 40.06019 -1.85823 29969 ft 493 kts 108°
2026-05-07 16:58 40.04328 -1.77132 29976 ft 494 kts 108°
2026-05-07 16:58 40.02632 -1.68462 29972 ft 504 kts 108°
2026-05-07 16:59 40.00862 -1.59463 29980 ft 514 kts 108°
2026-05-07 16:59 39.99083 -1.50427 30022 ft 515 kts 108°
2026-05-07 17:00 39.98193 -1.45918 30600 ft 507 kts 109°
2026-05-07 17:00 39.97309 -1.41450 30996 ft 508 kts 109°
2026-05-07 17:00 39.96420 -1.36985 31321 ft 509 kts 109°
2026-05-07 17:00 39.95539 -1.32570 31709 ft 509 kts 109°
2026-05-07 17:01 39.94646 -1.28101 32074 ft 509 kts 109°
2026-05-07 17:01 39.93762 -1.23684 32410 ft 509 kts 109°
2026-05-07 17:01 39.92865 -1.19214 32799 ft 509 kts 109°
2026-05-07 17:01 39.91968 -1.14749 33162 ft 510 kts 109°
2026-05-07 17:02 39.91067 -1.10277 33499 ft 510 kts 109°
2026-05-07 17:02 39.90166 -1.05814 33847 ft 510 kts 110°
2026-05-07 17:02 39.89260 -1.01338 34161 ft 510 kts 109°
2026-05-07 17:02 39.88354 -0.96869 34480 ft 509 kts 109°
2026-05-07 17:03 39.87449 -0.92417 34764 ft 509 kts 109°
2026-05-07 17:03 39.86539 -0.87953 35035 ft 509 kts 109°
2026-05-07 17:03 39.85628 -0.83498 35316 ft 509 kts 109°
2026-05-07 17:03 39.84717 -0.79046 35610 ft 509 kts 109°
2026-05-07 17:04 39.83817 -0.74656 35864 ft 508 kts 109°
2026-05-07 17:04 39.82903 -0.70218 35938 ft 508 kts 109°
2026-05-07 17:04 39.81076 -0.61360 35934 ft 507 kts 109°
2026-05-07 17:05 39.79241 -0.52500 35933 ft 507 kts 109°
2026-05-07 17:05 39.77401 -0.43642 35934 ft 507 kts 109°
2026-05-07 17:06 39.75554 -0.34785 35935 ft 507 kts 109°
2026-05-07 17:06 39.73697 -0.25922 35930 ft 507 kts 110°
2026-05-07 17:07 39.71839 -0.17086 35929 ft 507 kts 110°
2026-05-07 17:07 39.69981 -0.08290 35927 ft 507 kts 110°
2026-05-07 17:08 39.68104 0.00562 35925 ft 507 kts 110°
2026-05-07 17:08 39.66222 0.09398 35931 ft 508 kts 110°
2026-05-07 17:09 39.64342 0.18189 35931 ft 508 kts 110°
2026-05-07 17:09 39.62447 0.27017 35927 ft 508 kts 110°
2026-05-07 17:10 39.60546 0.35834 35928 ft 508 kts 110°
2026-05-07 17:10 39.58637 0.44653 35921 ft 507 kts 110°
2026-05-07 17:11 39.57684 0.49048 35700 ft 504 kts 110°
2026-05-07 17:11 39.56735 0.53413 35099 ft 504 kts 110°
2026-05-07 17:11 39.55783 0.57784 34538 ft 500 kts 110°
2026-05-07 17:11 39.54853 0.62052 34023 ft 496 kts 111°
2026-05-07 17:12 39.53914 0.66346 33434 ft 491 kts 111°
2026-05-07 17:12 39.52987 0.70577 32934 ft 485 kts 111°
2026-05-07 17:12 39.52070 0.74753 32414 ft 479 kts 111°
2026-05-07 17:12 39.51162 0.78877 31889 ft 474 kts 111°
2026-05-07 17:13 39.50264 0.82951 31389 ft 469 kts 111°
2026-05-07 17:13 39.49371 0.86993 30897 ft 463 kts 111°
2026-05-07 17:13 39.48489 0.90977 30393 ft 458 kts 111°
2026-05-07 17:13 39.47613 0.94923 29890 ft 453 kts 111°
2026-05-07 17:14 39.46748 0.98819 29325 ft 449 kts 111°
2026-05-07 17:14 39.45887 1.02683 28798 ft 443 kts 110°
2026-05-07 17:14 39.45047 1.06453 28248 ft 439 kts 110°
2026-05-07 17:14 39.44202 1.10223 27713 ft 434 kts 110°
2026-05-07 17:15 39.43362 1.13969 27170 ft 430 kts 110°
2026-05-07 17:15 39.42532 1.17663 26682 ft 425 kts 110°
2026-05-07 17:15 39.41708 1.21332 26160 ft 421 kts 110°
2026-05-07 17:15 39.40903 1.24911 25663 ft 417 kts 110°
2026-05-07 17:16 39.40094 1.28510 25166 ft 413 kts 110°
2026-05-07 17:16 39.39296 1.32057 24697 ft 409 kts 110°
2026-05-07 17:16 39.38502 1.35579 24203 ft 406 kts 110°
2026-05-07 17:16 39.37814 1.39090 23566 ft 403 kts 102°
2026-05-07 17:17 39.37619 1.42695 22756 ft 401 kts 90°
2026-05-07 17:17 39.37927 1.46258 21987 ft 398 kts 81°
2026-05-07 17:17 39.38404 1.49766 21235 ft 393 kts 81°
2026-05-07 17:17 39.38859 1.53181 20517 ft 388 kts 82°
2026-05-07 17:18 39.39315 1.56641 19811 ft 383 kts 82°
2026-05-07 17:18 39.39752 1.59970 19133 ft 378 kts 82°
2026-05-07 17:18 39.40187 1.63302 18486 ft 373 kts 81°
2026-05-07 17:18 39.40617 1.66602 17784 ft 369 kts 81°
2026-05-07 17:19 39.41040 1.69849 17075 ft 364 kts 81°
2026-05-07 17:19 39.41457 1.73055 16389 ft 359 kts 81°
2026-05-07 17:19 39.41867 1.76217 15711 ft 354 kts 81°
2026-05-07 17:19 39.42272 1.79341 15050 ft 350 kts 81°
2026-05-07 17:20 39.42665 1.82387 14414 ft 345 kts 81°
2026-05-07 17:20 39.43058 1.85437 13782 ft 341 kts 81°
2026-05-07 17:20 39.43443 1.88438 13095 ft 336 kts 81°
2026-05-07 17:20 39.43710 1.91425 12419 ft 331 kts 86°
2026-05-07 17:21 39.43870 1.94379 11769 ft 327 kts 86°
2026-05-07 17:21 39.44015 1.97297 11118 ft 323 kts 86°
2026-05-07 17:21 39.44158 2.00180 10483 ft 319 kts 86°
2026-05-07 17:21 39.44302 2.03036 9907 ft 314 kts 85°
2026-05-07 17:22 39.44395 2.04862 9780 ft 301 kts 85°
2026-05-07 17:22 39.44531 2.07496 9489 ft 287 kts 85°
2026-05-07 17:22 39.44664 2.10050 8936 ft 283 kts 85°
2026-05-07 17:22 39.44795 2.12582 8385 ft 280 kts 85°
2026-05-07 17:23 39.44924 2.15075 7869 ft 276 kts 86°
2026-05-07 17:23 39.45050 2.17538 7367 ft 272 kts 86°
2026-05-07 17:23 39.45065 2.17835 7312 ft 272 kts 86°
2026-05-07 17:23 39.45120 2.18906 7136 ft 267 kts 86°
2026-05-07 17:24 39.45240 2.21283 6732 ft 266 kts 86°
2026-05-07 17:24 39.45361 2.23678 6341 ft 266 kts 86°
2026-05-07 17:24 39.45461 2.25667 6038 ft 264 kts 86°
2026-05-07 17:24 39.45536 2.27156 5814 ft 263 kts 86°
2026-05-07 17:25 39.45654 2.29517 5445 ft 262 kts 86°
2026-05-07 17:25 39.45769 2.31835 5266 ft 253 kts 86°
2026-05-07 17:25 39.45880 2.34063 5085 ft 244 kts 86°
2026-05-07 17:25 39.45987 2.36225 4771 ft 243 kts 86°
2026-05-07 17:26 39.46094 2.38404 4471 ft 241 kts 86°
2026-05-07 17:26 39.46199 2.40563 4229 ft 239 kts 86°
2026-05-07 17:26 39.46303 2.42699 3985 ft 236 kts 86°
2026-05-07 17:26 39.46406 2.44810 3634 ft 233 kts 86°
2026-05-07 17:27 39.46507 2.46876 3290 ft 226 kts 86°
2026-05-07 17:27 39.46603 2.48868 3034 ft 215 kts 86°
2026-05-07 17:27 39.46693 2.50789 3005 ft 221 kts 86°
2026-05-07 17:27 39.46789 2.52789 2987 ft 219 kts 86°
2026-05-07 17:28 39.47046 2.54672 2956 ft 216 kts 69°
2026-05-07 17:28 39.47734 2.56412 2659 ft 218 kts 59°
2026-05-07 17:28 39.48554 2.58073 2356 ft 217 kts 58°
2026-05-07 17:28 39.49357 2.59719 2048 ft 214 kts 58°
2026-05-07 17:29 39.50124 2.61335 1763 ft 205 kts 59°
2026-05-07 17:29 39.50837 2.62845 1529 ft 187 kts 59°
2026-05-07 17:29 39.51481 2.64211 1283 ft 170 kts 60°
2026-05-07 17:29 39.52097 2.65516 1039 ft 171 kts 59°
2026-05-07 17:30 39.52710 2.66816 817 ft 164 kts 59°
2026-05-07 17:30 39.53288 2.68041 588 ft 158 kts 58°
2026-05-07 17:30 39.53857 2.69247 382 ft 149 kts 58°
2026-05-07 17:30 39.54343 2.70280 213 ft 132 kts 57°
2026-05-07 17:31 39.54810 2.71263 47 ft 117 kts 57°
2026-05-07 17:31 39.55181 2.72050 38 ft 78 kts 59°
2026-05-07 17:31 39.55355 2.72422 38 ft 22 kts 59°
2026-05-07 17:31 39.55444 2.72613 38 ft 31 kts 58°
2026-05-07 17:32 39.55496 2.72867 38 ft 29 kts 87°
2026-05-07 17:32 39.55500 2.73093 38 ft 18 kts 89°
2026-05-07 17:32 39.55530 2.73242 38 ft 16 kts 54°
2026-05-07 17:32 39.55565 2.73311 38 ft 16 kts 58°
2026-05-07 17:33 39.55599 2.73382 38 ft 15 kts 58°
2026-05-07 17:33 39.55611 2.73505 37 ft 15 kts 130°
2026-05-07 17:33 39.55522 2.73577 38 ft 16 kts 150°
2026-05-07 17:34 39.55381 2.73689 38 ft 30 kts 147°
2026-05-07 17:34 39.55195 2.73836 36 ft 30 kts 147°
2026-05-07 17:34 39.55018 2.73977 38 ft 29 kts 148°
2026-05-07 17:34 39.54845 2.74110 38 ft 28 kts 149°
2026-05-07 17:35 39.54782 2.74117 38 ft 13 kts 205°
2026-05-07 17:35 39.54733 2.73998 37 ft 14 kts 237°
2026-05-07 17:35 39.54600 2.73729 38 ft 31 kts 240°
2026-05-07 17:35 39.54624 2.73594 38 ft 12 kts 288°
2026-05-07 17:36 39.54608 2.73546 38 ft 13 kts 226°
2026-05-07 17:36 39.54540 2.73417 37 ft 19 kts 239°
2026-05-07 17:36 39.54506 2.73341 38 ft 0 kts 240°
2026-05-07 17:36 39.54507 2.73335 38 ft 3 kts 271°
2026-05-07 17:37 39.54521 2.73331 35 ft 3 kts 359°
2026-05-07 17:37 39.54561 2.73325 38 ft 0 kts 347°